This demonstration page uses our WeatherBlox Daily Observations layout. Learn more.

Left ArrowRight Arrow

33.98154, -81.23621

Hourly Observations for August 16, 2022

Temp ( °F °C ) Dew Point ( °F °C ) Humidity (%) Winds ( mph kmh ) Pressure ( in mb ) Visibility ( mi km ) Precip ( " mm )
12:09 am 00:09 Cloudy with Rain 73 22.8 73 22.8 100 100 Calm 29.86 1011 2 3 0.09 2.29
12:18 am 00:18 Cloudy with Light Rain 74 23.3 73 22.8 97 97 Calm 29.86 1011 9 14 0.09 2.29
12:56 am 00:56 Mostly Cloudy 74 23.3 73 22.8 97 97 Calm 29.85 1011 9 14 0.10 2.54
1:56 am 01:56 Partly Cloudy 74 23.3 73 22.8 97 97 Calm 29.85 1011 9 14 0.00 0.00
2:56 am 02:56 Clear with Mist and Fog 73 22.8 73 22.8 100 100 ESE 3 6 29.84 1011 6 10 0.00 0.00
3:07 am 03:07 Partly Cloudy 73 22.8 73 22.8 100 100 ENE 3 6 29.83 1010 7 11 0.00 0.00
3:19 am 03:19 Mostly Cloudy 73 22.8 72 22.2 96 96 ENE 3 6 29.84 1011 8 13 0.00 0.00
3:54 am 03:54 Cloudy with Mist and Fog 72 22 72 22 100 100 ESE 5 7 29.83 1010 6 10 0.00 0.00
3:56 am 03:56 Mostly Cloudy with Mist and Fog 72 22.2 72 22.2 100 100 ESE 5 7 29.83 1010 6 10 0.00 0.00
4:10 am 04:10 Mostly Cloudy 72 22.2 72 22.2 100 100 Calm 29.83 1010 7 11 0.00 0.00
4:56 am 04:56 Cloudy 73 22.8 72 22.2 96 96 ENE 3 6 29.83 1010 9 14 0.00 0.00
5:22 am 05:22 Cloudy 73 22.8 72 22.2 96 96 NE 3 6 29.82 1010 9 14 0.00 0.00
5:29 am 05:29 Cloudy 73 22.8 72 22.2 96 96 NNE 5 7 29.82 1010 9 14 0.00 0.00
5:45 am 05:45 Cloudy 73 22.8 72 22.2 96 96 NNE 8 13 29.82 1010 9 14 0.00 0.00
5:56 am 05:56 Cloudy 73 22.8 72 22.2 96 96 NNE 6 9 29.83 1010 8 13 0.00 0.00
6:04 am 06:04 Cloudy 73 22.8 72 22.2 96 96 NNE 5 7 29.83 1010 8 13 0.00 0.00
6:19 am 06:19 Cloudy with Mist and Fog 73 22.8 71 21.7 94 94 NNE 7 11 29.83 1010 6 10 0.00 0.00
6:24 am 06:24 Cloudy with Mist and Fog 73 22.8 71 21.7 94 94 NNE 6 9 29.83 1010 6 10 0.00 0.00
6:47 am 06:47 Cloudy 72 22.2 71 21.7 97 97 NE 5 7 29.84 1011 8 13 0.00 0.00
6:56 am 06:56 Cloudy 72 22.2 71 21.7 97 97 NE 7 11 29.85 1011 8 13 0.00 0.00
7:25 am 07:25 Cloudy with Mist and Fog 72 22.2 71 21.7 97 97 ENE 7 11 29.86 1011 6 10 0.00 0.00
7:56 am 07:56 Cloudy with Light Rain 72 22.2 71 21.7 97 97 NE 7 11 29.86 1011 2 3 0.01 0.13
8:04 am 08:04 Cloudy with Light Rain 72 22.2 71 21.7 97 97 NE 8 13 29.87 1012 3 4 0.01 0.13
8:20 am 08:20 Cloudy with Mist and Fog 72 22.2 71 21.7 97 97 NE 7 11 29.87 1012 2 2 0.01 0.13
8:45 am 08:45 Cloudy with Mist and Fog 72 22.2 71 21.7 97 97 NE 6 9 29.88 1012 3 5 0.01 0.13
8:56 am 08:56 Cloudy with Light Rain 72 22.2 71 21.7 97 97 NE 5 7 29.88 1012 2 3 0.01 0.13
9:03 am 09:03 Cloudy with Light Rain 72 22.2 71 21.7 97 97 NE 5 7 29.88 1012 4 6 0.01 0.13
9:12 am 09:12 Cloudy with Mist and Fog 72 22.2 71 21.7 97 97 NE 3 6 29.88 1012 3 4 0.01 0.13
9:26 am 09:26 Cloudy with Mist and Fog 72 22.2 71 21.7 97 97 NE 6 9 29.88 1012 5 8 0.01 0.13
9:41 am 09:41 Cloudy 73 22.8 71 21.7 94 94 NE 5 7 29.88 1012 10 16 0.01 0.13
9:56 am 09:56 Cloudy with Mist and Fog 73 22.8 71 21.7 94 94 NNE 6 9 29.88 1012 6 10 0.01 0.13
10:13 am 10:13 Cloudy with Mist and Fog 73 22.8 71 21.7 94 94 NNE 8 13 29.89 1012 5 8 0.00 0.00
10:23 am 10:23 Cloudy with Mist and Fog 73 22.8 71 21.7 94 94 NNE 6 9 29.89 1012 6 10 0.00 0.00
10:56 am 10:56 Cloudy 73 22.8 71 21.7 94 94 NE 5 7 29.89 1012 7 11 0.00 0.00
11:05 am 11:05 Cloudy 74 23.3 71 21.7 91 91 VRB 7 11 29.90 1013 10 16 0.00 0.00
11:08 am 11:08 Cloudy 74 23.3 71 21.7 91 91 NNE 8 13 29.90 1013 10 16 0.00 0.00
11:56 am 11:56 Cloudy 76 24.4 70 21.1 82 82 ENE 7 11 29.90 1013 10 16 0.00 0.00
12:56 pm 12:56 Cloudy 76 24.4 70 21.1 82 82 NE 6 9 29.91 1013 10 16 0.00 0.00
1:56 pm 13:56 Cloudy 77 25 69 20.6 77 77 NNE 5 7 29.91 1013 10 16 0.00 0.00
2:29 pm 14:29 Cloudy 79 26.1 70 21.1 74 74 VRB 7 11 29.91 1013 10 16 0.00 0.00
2:36 pm 14:36 Cloudy 78 25.6 69 20.6 74 74 NNE 9 15 29.91 1013 10 16 0.00 0.00
2:56 pm 14:56 Cloudy 79 26.1 69 20.6 72 72 NNE 7 11 29.90 1013 10 16 0.00 0.00
3:56 pm 15:56 Mostly Cloudy 80 26.7 69 20.6 69 69 NE 9 15 29.89 1012 10 16 0.00 0.00
4:56 pm 16:56 Mostly Cloudy 80 26.7 69 20.6 69 69 N 6 9 29.89 1012 10 16 0.00 0.00
5:56 pm 17:56 Mostly Cloudy 78 25.6 68 20 71 71 N 9 15 29.89 1012 10 16 0.00 0.00
6:56 pm 18:56 Mostly Cloudy 75 23.9 67 19.4 76 76 NE 9 15 29.90 1013 10 16 0.00 0.00
7:56 pm 19:56 Mostly Cloudy 74 23.3 67 19.4 79 79 N 8 13 29.91 1013 10 16 0.00 0.00
8:56 pm 20:56 Cloudy 74 23.3 68 20 82 82 N 8 13 29.91 1013 10 16 0.00 0.00
9:56 pm 21:56 Cloudy 73 22.8 67 19.4 81 81 N 6 9 29.94 1014 10 16 0.00 0.00
10:56 pm 22:56 Cloudy 73 22.8 67 19.4 81 81 NNE 5 7 29.94 1014 10 16 0.00 0.00
11:56 pm 23:56 Cloudy 72 22.2 68 20 87 87 NE 5 7 29.94 1014 10 16 0.01 0.25

Powered by AerisWeather